Flag for Canada Weather past 2 weeks in Fort Smith, Northwest Territories, Canada

Now
45 °F

Passing clouds.


Feels Like: 42 °F
Forecast: 43 / 67 °F
Wind: 5 mph from West

Location: Fort Smith

Current Time: Jul 7, 2015 at 5:51:11 AM

Latest Report: Jul 7, 2015 at 5:00 AM


Visibility: 15 mi

Pressure: 30.11 "Hg

Humidity: 81%

Dew point: 39 °F

Location of Fort SmithLocation

Historic Weather in Fort Smith — Graph

°F

Fort Smith temperature yesterday

Maximum temperature yesterday: 64 °F (at 12:00 AM)
Minimum temperature yesterday: 52 °F (at 11:00 PM)
Average temperature yesterday: 57 °F

Past Weeks' High & Low Weather Summary

 TemperatureHumidityPressure
High84 °F (Jun 27, 2:00 PM)100% (Jul 4, 3:00 AM)30.13 "Hg (Jul 4, 3:00 AM)
Low43 °F (Jul 7, 4:00 AM)23% (Jun 27, 4:00 PM)29.53 "Hg (Jul 3, 8:00 AM)
Average66 °F59%29.87 "Hg
* Reported Jun 22 4:00 AM — Jul 7 4:00 AM, Fort Smith, Weather by CustomWeather, © 2015

Note: Actual official high and low records may vary slightly from our data, if they occured in-between our weather recording intervals... More about our weather records

Advertising

Fort Smith weather history for previous 24 hours

 ConditionsComfort  
Time TempWeatherWind HumidityBarometerVisibility
4:00 AM
Tue, Jul 7
43 °FPassing clouds.5 mph81%30.12 "Hg15 mi
3:00 AM45 °FPassing clouds.9 mph81%30.12 "Hg15 mi
2:00 AM45 °FPassing clouds.3 mph76%30.11 "Hg15 mi
1:00 AM48 °FPassing clouds.6 mph71%30.11 "Hg15 mi
12:00 AM50 °FPassing clouds.8 mph67%30.11 "Hg15 mi
11:00 PM
Mon, Jul 6
52 °FScattered clouds.6 mph62%30.11 "Hg15 mi
10:00 PM54 °FScattered clouds.6 mph54%30.10 "Hg15 mi
9:00 PM54 °FBroken clouds.9 mph54%30.09 "Hg15 mi
8:00 PM55 °FPartly sunny.7 mph51%30.09 "Hg15 mi
7:00 PM59 °FPartly sunny.14 mph48%30.07 "Hg15 mi
6:00 PM59 °FPartly sunny.17 mph48%30.06 "Hg15 mi
5:00 PM61 °FBroken clouds.10 mph48%30.06 "Hg15 mi
4:00 PM57 °FMore clouds than sun.8 mph55%30.06 "Hg15 mi
3:00 PM57 °FCloudy.9 mph59%30.06 "Hg15 mi
2:50 PM55 °FPartly sunny.8 mph67%30.06 "Hg15 mi
2:00 PM55 °FSprinkles. Partly sunny.8 mph67%30.07 "Hg15 mi
1:00 PM55 °FMore clouds than sun.7 mph77%30.06 "Hg15 mi
12:47 PM54 °FCool.8 mph82%30.06 "Hg15 mi
12:00 PM55 °FSprinkles. Overcast.12 mph72%30.05 "Hg12 mi
11:00 AM55 °FOvercast.9 mph67%30.05 "Hg15 mi
10:00 AM59 °FBroken clouds.14 mph59%30.02 "Hg15 mi
9:00 AM55 °FMostly cloudy.10 mph88%30.03 "Hg15 mi
8:00 AM55 °FLow clouds.9 mph94%30.02 "Hg12 mi
7:00 AM55 °FLow clouds.5 mph94%30.01 "Hg10 mi
6:45 AM55 °FLow clouds.8 mph100%30.01 "Hg10 mi
6:00 AM55 °FSprinkles. Partly sunny.7 mph100%29.99 "Hg15 mi
5:00 AM57 °FSprinkles. Passing clouds.3 mph94%30.00 "Hg15 mi
Weather by CustomWeather, © 2015

See weather overviewHow to use our weather pages